Hourly Data Report for March 30, 2004

TORONTO CITY
ONTARIO

43°40'00.000" N
79°24'00.000" W
112.50 m
6158355
71508
XTO

Download Data

Hourly Data (March 2004)
Hourly Data Report for March 30, 2004
TIME
LST
Temp Definition
°C
Dew Point Definition
°C
Rel Hum Definition
%
Precip. Amount Definition
mm

Wind Dir Definition
10's deg

Wind Spd Definition
km/h
Visibility Definition
km
Stn Press Definition
kPa
Hmdx Definition


Wind Chill Definition


Weather Definition


00:00 12.4 6.9 69   LegendMM LegendMM LegendMM 100.48     LegendNANA
01:00 12.3 7.0 70   LegendMM LegendMM LegendMM 100.50     LegendNANA
02:00 11.6 6.7 72   LegendMM LegendMM LegendMM 100.47     LegendNANA
03:00 11.2 6.8 74   LegendMM LegendMM LegendMM 100.45     LegendNANA
04:00 10.4 7.3 81   LegendMM LegendMM LegendMM 100.38     LegendNANA
05:00 10.1 7.5 84   LegendMM LegendMM LegendMM 100.39     LegendNANA
06:00 9.7 7.3 85   LegendMM LegendMM LegendMM 100.39     LegendNANA
07:00 9.2 6.8 85   LegendMM LegendMM LegendMM 100.41     LegendNANA
08:00 9.0 6.6 85   LegendMM LegendMM LegendMM 100.39     LegendNANA
09:00 8.9 6.5 85   LegendMM LegendMM LegendMM 100.35     LegendNANA
10:00 8.9 6.5 85   LegendMM LegendMM LegendMM 100.33     LegendNANA
11:00 8.3 6.4 88   LegendMM LegendMM LegendMM 100.33     LegendNANA
12:00 8.0 6.6 91   LegendMM LegendMM LegendMM 100.26     LegendNANA
13:00 7.7 6.2 90   LegendMM LegendMM LegendMM 100.24     LegendNANA
14:00 7.6 6.4 92   LegendMM LegendMM LegendMM 100.18     LegendNANA
15:00 7.3 6.1 92   LegendMM LegendMM LegendMM 100.20     LegendNANA
16:00 7.0 5.8 92   LegendMM LegendMM LegendMM 100.15     LegendNANA
17:00 6.7 5.3 91   LegendMM LegendMM LegendMM 100.16     LegendNANA
18:00 6.7 5.3 91   LegendMM LegendMM LegendMM 100.17     LegendNANA
19:00 6.6 5.2 91   LegendMM LegendMM LegendMM 100.17     LegendNANA
20:00 6.4 5.0 91   LegendMM LegendMM LegendMM 100.17     LegendNANA
21:00 6.1 4.9 92   LegendMM LegendMM LegendMM 100.16     LegendNANA
22:00 6.1 5.4 95   LegendMM LegendMM LegendMM 100.14     LegendNANA
23:00 6.1 5.5 96   LegendMM LegendMM LegendMM 100.12     LegendNANA

Notes on Data Quality.

Legend

  • E = Estimated
  • M = Missing
  • NA = Not Available*
  • [empty] = Indicates an unobserved value
Date modified: